Weather in Perehonivka

Ukraine / Kirovohrad Region     48°32′01″N   30°31′24″E
temp.,
°C
wind,
m/s
gust,
m/s
humid.,
%
clouds,
%
prec.,
mm/h
press.,
hPa
HPBL,
m
25 june, sat
sat2500:00+16nne4108696 0.0 1013388
03:00+16n4118767 0.0 1013375
06:00+14nne499459 0.0 1014301
09:00+20ne576958 0.0 1014836
12:00+22ne666471 0.1 10141336
15:00+24ne665790 0.7 10141518
18:00+22ne686510 0.6 1015975
21:00+19ne4876100 0.6 1015295
26 june, sun
sun2600:00+16ne37935 0.0 1016145
03:00+15nne369669 0.0 1016117
06:00+15nne379759 0.0 1017213
09:00+19ne4679100 0.0 1017493
12:00+23ne576539 0.1 10171155
15:00+21ene478189 1.8 1017483
18:00+23ne577020 1.4 1017864
21:00+19ene4108860 3.5 1018208
27 june, mon
mon2700:00+17ne368939 0.1 101992
03:00+17ne499198 0.1 1019196
06:00+17ne4109337 0.0 1020219
09:00+22ne687046 0.0 1020550
12:00+27ene784744 0.0 10202157
15:00+28ene783770 0.0 10192180
18:00+27ene674216 0.0 10192042
21:00+21ene36595 0.0 101973
28 june, tue
tue2800:00+19ne45663 0.0 101974
03:00+17ne357213 0.0 101969
06:00+17ne357445 0.0 1019100
09:00+23ene46565 0.0 1019605
12:00+27ene574796 0.0 10191594
15:00+30ene684180 0.0 10172068
18:00+29e574799 0.0 10161608
21:00+24nne346697 0.0 101757
29 june, wed
wed2900:00+20nne469099 1.3 1018103
03:00+19nne369499 1.4 1018119
06:00+19ene3690100 0.0 1018148
09:00+25ne34675 0.0 1018461
12:00+29ne554578 0.0 10181813
15:00+30ene554088 0.1 10172230
18:00+30ne544090 0.0 10161533
21:00+24e511605 0.0 1017310